When you browse on this site, cookies collect data to enhance your experience and personalize the content and advertising you see.
Visit our Privacy Policy to learn more. By continuing to use the site, you agree to this use of cookies and data.
  • In Austria
  • List of Countries
  • For 7 days
  • Water Temperature
  • Weather Map
  • News
  • Weather Widgets
  • user-avatar
    Login

    Hourly Weather Tizayuca

    Today, 23 August, Friday

    Time Temperature Precipitation Wind Pressure Humidity
    00:00 +15°C° 0 mm 1 mps 581 mmHg 86%
    01:00 +15°C° 0 mm 1 mps 581 mmHg 87%
    02:00 +14°C° 0 mm 0 mps 581 mmHg 87%
    03:00 +13°C° 0 mm 0 mps 581 mmHg 87%
    04:00 +13°C° 0 mm 0 mps 581 mmHg 88%
    05:00 +13°C° 0 mm 0 mps 580 mmHg 88%
    06:00 +14°C° 0 mm 0 mps 581 mmHg 82%
    07:00 +16°C° 0 mm 0 mps 582 mmHg 75%
    08:00 +18°C° 0 mm 0 mps 583 mmHg 69%
    09:00 +21°C° 0.2 mm 1 mps 584 mmHg 64%
    10:00 +23°C° 0.2 mm 1 mps 584 mmHg 58%
    11:00 +24°C° 0.2 mm 2 mps 584 mmHg 53%
    12:00 +24°C° 1.2 mm 2 mps 584 mmHg 53%
    13:00 +24°C° 1.2 mm 3 mps 584 mmHg 54%
    14:00 +25°C° 1.2 mm 4 mps 583 mmHg 54%
    15:00 +22°C° 2.4 mm 3 mps 582 mmHg 62%
    16:00 +20°C° 2.4 mm 3 mps 581 mmHg 70%
    17:00 +19°C° 2.4 mm 2 mps 581 mmHg 78%
    18:00 +17°C° 3.8 mm 3 mps 581 mmHg 82%
    19:00 +16°C° 3.8 mm 3 mps 581 mmHg 85%
    20:00 +14°C° 3.8 mm 3 mps 581 mmHg 88%
    21:00 +14°C° 0.4 mm 3 mps 581 mmHg 87%
    22:00 +15°C° 0.4 mm 2 mps 581 mmHg 86%
    23:00 +14°C° 0.4 mm 2 mps 581 mmHg 85%

    Tomorrow, 24 August, Saturday

    Time Temperature Precipitation Wind Pressure Humidity
    00:00 +15°C° 0 mm 2 mps 581 mmHg 84%
    01:00 +15°C° 0 mm 1 mps 581 mmHg 83%
    02:00 +15°C° 0 mm 1 mps 581 mmHg 82%
    03:00 +15°C° 0 mm 1 mps 581 mmHg 81%
    04:00 +14°C° 0 mm 0 mps 581 mmHg 81%
    05:00 +14°C° 0 mm 0 mps 581 mmHg 81%
    06:00 +15°C° 0 mm 0 mps 582 mmHg 76%
    07:00 +16°C° 0 mm 0 mps 583 mmHg 71%
    08:00 +17°C° 0 mm 0 mps 583 mmHg 67%
    09:00 +21°C° 0 mm 1 mps 584 mmHg 60%
    10:00 +23°C° 0 mm 1 mps 584 mmHg 54%
    11:00 +24°C° 0 mm 1 mps 585 mmHg 48%
    12:00 +25°C° 0.2 mm 2 mps 584 mmHg 47%
    13:00 +25°C° 0.2 mm 2 mps 584 mmHg 46%
    14:00 +26°C° 0.2 mm 2 mps 584 mmHg 45%
    15:00 +25°C° 0.7 mm 3 mps 583 mmHg 51%
    16:00 +24°C° 0.7 mm 3 mps 583 mmHg 57%
    17:00 +22°C° 0.7 mm 3 mps 582 mmHg 63%
    18:00 +20°C° 2.2 mm 3 mps 582 mmHg 69%
    19:00 +18°C° 2.2 mm 3 mps 582 mmHg 74%
    20:00 +16°C° 2.2 mm 2 mps 582 mmHg 80%
    21:00 +16°C° 0.1 mm 2 mps 582 mmHg 79%
    22:00 +16°C° 0.1 mm 1 mps 582 mmHg 79%
    23:00 +16°C° 0.1 mm 1 mps 582 mmHg 78%

    Day after tomorrow, 25 August, Sunday

    Time Temperature Precipitation Wind Pressure Humidity
    00:00 +16°C° 0 mm 1 mps 581 mmHg 79%
    01:00 +15°C° 0 mm 1 mps 580 mmHg 80%
    02:00 +14°C° 0 mm 0 mps 580 mmHg 81%
    03:00 +13°C° 0 mm 0 mps 580 mmHg 81%
    04:00 +13°C° 0 mm 0 mps 580 mmHg 81%
    05:00 +13°C° 0 mm 0 mps 580 mmHg 81%
    06:00 +15°C° 0 mm 0 mps 581 mmHg 74%
    07:00 +17°C° 0 mm 0 mps 582 mmHg 68%
    08:00 +19°C° 0 mm 0 mps 583 mmHg 61%
    09:00 +22°C° 0 mm 1 mps 584 mmHg 56%
    10:00 +24°C° 0 mm 1 mps 584 mmHg 51%
    11:00 +25°C° 0 mm 1 mps 584 mmHg 46%
    12:00 +26°C° 0.4 mm 2 mps 584 mmHg 46%
    13:00 +26°C° 0.4 mm 3 mps 583 mmHg 46%
    14:00 +27°C° 0.4 mm 3 mps 583 mmHg 45%
    15:00 +25°C° 0.9 mm 4 mps 582 mmHg 52%
    16:00 +23°C° 0.9 mm 4 mps 582 mmHg 58%
    17:00 +21°C° 0.9 mm 4 mps 581 mmHg 65%
    18:00 +20°C° 0.3 mm 3 mps 581 mmHg 67%
    19:00 +19°C° 0.3 mm 2 mps 581 mmHg 70%
    20:00 +19°C° 0.3 mm 1 mps 581 mmHg 72%
    21:00 +19°C° 0 mm 1 mps 581 mmHg 72%
    22:00 +18°C° 0 mm 1 mps 581 mmHg 72%
    23:00 +18°C° 0 mm 1 mps 581 mmHg 72%

    26 August, Monday

    Time Temperature Precipitation Wind Pressure Humidity
    00:00 +18°C° 0 mm 1 mps 581 mmHg 74%
    01:00 +16°C° 0 mm 1 mps 580 mmHg 75%
    02:00 +16°C° 0 mm 1 mps 580 mmHg 76%
    03:00 +15°C° 0 mm 0 mps 580 mmHg 77%
    04:00 +15°C° 0 mm 0 mps 580 mmHg 78%
    05:00 +14°C° 0 mm 0 mps 580 mmHg 78%
    06:00 +16°C° 0 mm 0 mps 581 mmHg 73%
    07:00 +17°C° 0 mm 0 mps 581 mmHg 67%
    08:00 +19°C° 0 mm 0 mps 582 mmHg 62%
    09:00 +20°C° 0.1 mm 0 mps 583 mmHg 56%
    10:00 +22°C° 0.1 mm 0 mps 583 mmHg 51%
    11:00 +23°C° 0.1 mm 0 mps 583 mmHg 46%
    12:00 +26°C° 0.2 mm 1 mps 583 mmHg 45%
    13:00 +26°C° 0.2 mm 2 mps 583 mmHg 44%
    14:00 +26°C° 0.2 mm 2 mps 582 mmHg 43%
    15:00 +25°C° 0.6 mm 3 mps 582 mmHg 51%
    16:00 +22°C° 0.6 mm 3 mps 581 mmHg 59%
    17:00 +20°C° 0.6 mm 4 mps 580 mmHg 67%
    18:00 +19°C° 1 mm 3 mps 580 mmHg 71%
    19:00 +17°C° 1 mm 2 mps 580 mmHg 76%
    20:00 +16°C° 1 mm 1 mps 580 mmHg 80%
    21:00 +15°C° 0 mm 1 mps 580 mmHg 80%
    22:00 +15°C° 0 mm 1 mps 580 mmHg 81%
    23:00 +14°C° 0 mm 0 mps 580 mmHg 81%

    27 August, Tuesday

    Time Temperature Precipitation Wind Pressure Humidity
    00:00 +13°C° 0 mm 0 mps 580 mmHg 81%
    01:00 +13°C° 0 mm 0 mps 579 mmHg 81%
    02:00 +13°C° 0 mm 0 mps 579 mmHg 81%
    03:00 +13°C° 0 mm 0 mps 579 mmHg 80%
    04:00 +13°C° 0 mm 0 mps 579 mmHg 80%
    05:00 +13°C° 0 mm 0 mps 579 mmHg 80%
    06:00 +14°C° 0 mm 0 mps 580 mmHg 74%
    07:00 +16°C° 0 mm 0 mps 581 mmHg 68%
    08:00 +17°C° 0 mm 0 mps 582 mmHg 62%
    09:00 +19°C° 0 mm 0 mps 583 mmHg 57%
    10:00 +23°C° 0 mm 1 mps 583 mmHg 52%
    11:00 +25°C° 0 mm 1 mps 584 mmHg 46%
    12:00 +25°C° 0.2 mm 2 mps 583 mmHg 47%
    13:00 +25°C° 0.2 mm 3 mps 583 mmHg 47%
    14:00 +25°C° 0.2 mm 4 mps 582 mmHg 47%
    15:00 +23°C° 0.9 mm 4 mps 582 mmHg 53%
    16:00 +22°C° 0.9 mm 4 mps 582 mmHg 58%
    17:00 +21°C° 0.9 mm 4 mps 581 mmHg 64%
    18:00 +20°C° 0.4 mm 3 mps 582 mmHg 67%
    19:00 +19°C° 0.4 mm 3 mps 582 mmHg 70%
    20:00 +17°C° 0.4 mm 2 mps 582 mmHg 73%
    21:00 +17°C° 0.1 mm 2 mps 582 mmHg 74%
    22:00 +16°C° 0.1 mm 1 mps 582 mmHg 75%
    23:00 +16°C° 0.1 mm 1 mps 582 mmHg 76%

    28 August, Wednesday

    Time Temperature Precipitation Wind Pressure Humidity
    00:00 +16°C° 0 mm 1 mps 582 mmHg 77%
    01:00 +15°C° 0 mm 1 mps 581 mmHg 78%
    02:00 +14°C° 0 mm 0 mps 581 mmHg 79%
    03:00 +15°C° 0 mm 1 mps 581 mmHg 79%
    04:00 +15°C° 0 mm 1 mps 581 mmHg 80%
    05:00 +14°C° 0 mm 1 mps 581 mmHg 80%
    06:00 +16°C° 0 mm 1 mps 582 mmHg 75%
    07:00 +16°C° 0 mm 0 mps 583 mmHg 70%
    08:00 +18°C° 0 mm 0 mps 584 mmHg 65%
    09:00 +21°C° 0 mm 1 mps 584 mmHg 58%
    10:00 +23°C° 0 mm 1 mps 585 mmHg 51%
    11:00 +24°C° 0 mm 2 mps 585 mmHg 44%
    12:00 +24°C° 0.3 mm 2 mps 584 mmHg 46%
    13:00 +24°C° 0.3 mm 3 mps 584 mmHg 48%
    14:00 +23°C° 0.3 mm 4 mps 583 mmHg 50%
    15:00 +22°C° 1.3 mm 4 mps 583 mmHg 56%
    16:00 +21°C° 1.3 mm 4 mps 582 mmHg 62%
    17:00 +20°C° 1.3 mm 4 mps 582 mmHg 69%
    18:00 +19°C° 0.5 mm 3 mps 582 mmHg 72%
    19:00 +18°C° 0.5 mm 3 mps 582 mmHg 76%
    20:00 +16°C° 0.5 mm 3 mps 582 mmHg 80%
    21:00 +16°C° 0.2 mm 2 mps 582 mmHg 82%
    22:00 +15°C° 0.2 mm 2 mps 582 mmHg 83%
    23:00 +15°C° 0.2 mm 1 mps 582 mmHg 85%
    Show more